Date,TemperatureHighF,TemperatureAvgF,TemperatureLowF,DewpointHighF,DewpointAvgF,DewpointLowF,HumidityHigh,HumidityAvg,HumidityLow,PressureMaxIn,PressureMinIn,WindSpeedMaxMPH,WindSpeedAvgMPH,GustSpeedMaxMPH,PrecipitationSumIn
2013-1-1,23.0,15.4,7.0,11.0,1.7,-6.0,65,54,40,0.00,40.00,21,12,27,0.00
2013-1-2,21.0,15.1,5.0,6.0,-0.1,-10.0,59,50,40,0.00,40.00,24,11,31,0.00
2013-1-3,24.0,14.9,5.0,2.0,-4.9,-11.0,47,40,36,0.00,40.00,27,19,35,0.00
2013-1-4,28.0,19.4,14.0,3.0,-3.0,-7.0,39,36,32,0.00,40.00,29,19,37,0.00
2013-1-5,27.0,17.8,10.0,4.0,-3.1,-10.0,44,38,33,0.00,40.00,23,16,31,0.00
2013-1-6,38.0,27.2,19.0,9.0,2.2,-2.0,39,33,25,0.00,40.00,31,20,39,0.00
2013-1-7,35.0,26.2,19.0,7.0,2.4,-3.0,41,35,28,0.00,40.00,27,18,34,0.00
2013-1-8,38.0,29.8,23.0,13.0,9.6,5.0,53,42,34,0.00,40.00,26,16,34,0.00
2013-1-9,45.0,35.3,26.0,16.0,12.1,7.0,52,39,26,0.00,40.00,35,24,46,0.00
2013-1-10,47.0,38.6,27.0,9.0,6.3,4.0,42,25,19,0.00,40.00,39,20,50,0.00
2013-1-11,29.0,8.5,0.0,15.0,-1.7,-10.0,70,62,42,0.00,40.00,29,14,36,0.00
2013-1-12,7.0,1.5,-4.0,-6.0,-9.8,-14.0,61,58,52,0.00,40.00,10,5,13,0.00
2013-1-13,8.0,-1.0,-9.0,-9.0,-13.3,-19.0,61,55,43,0.00,40.00,15,6,18,0.00
2013-1-14,8.0,-0.6,-9.0,-9.0,-14.4,-19.0,59,51,44,0.00,40.00,26,16,30,0.00
2013-1-15,20.0,13.3,2.0,3.0,-2.9,-14.0,49,47,44,0.00,40.00,29,21,37,0.00
2013-1-16,33.0,22.1,15.0,10.0,3.8,0.0,49,44,37,0.00,40.00,31,21,39,0.00
2013-1-17,37.0,25.7,18.0,9.0,3.3,0.0,45,37,29,0.00,40.00,29,20,34,0.00
2013-1-18,44.0,30.7,19.0,7.0,3.0,-1.0,40,30,20,0.00,40.00,30,15,37,0.00
2013-1-19,44.0,30.1,19.0,5.0,2.2,-3.0,37,30,18,0.00,40.00,25,15,32,0.00
2013-1-20,29.0,24.2,18.0,11.0,6.4,0.0,65,46,33,0.00,40.00,22,10,27,0.00
2013-1-21,44.0,30.1,17.0,8.0,4.0,1.0,50,34,18,0.00,40.00,26,16,34,0.00
2013-1-22,48.0,33.9,23.0,4.0,1.8,-1.0,35,26,14,0.00,40.00,29,16,36,0.00
2013-1-23,51.0,39.0,33.0,5.0,2.1,0.0,26,21,14,0.00,40.00,29,20,37,0.00
2013-1-24,48.0,39.3,27.0,18.0,10.7,2.0,56,31,21,0.00,40.00,32,17,41,0.00
2013-1-25,48.0,34.8,22.0,17.0,13.7,10.0,64,44,23,0.00,40.00,30,10,39,0.00
2013-1-26,51.0,39.4,28.0,21.0,16.9,12.0,55,40,28,0.00,40.00,30,15,36,0.00
2013-1-27,44.0,35.9,28.0,21.0,19.8,18.0,72,52,36,0.00,40.00,17,9,21,0.00
2013-1-28,29.0,23.6,13.0,21.0,14.1,4.0,72,66,53,0.00,40.00,16,8,19,0.00
2013-1-29,23.0,12.6,4.0,6.0,-1.7,-9.0,65,53,33,0.00,40.00,23,12,27,0.00
2013-1-30,31.0,18.3,-3.0,12.0,1.9,-13.0,67,49,35,0.00,40.00,21,14,30,0.00
2013-1-31,34.0,24.9,12.0,12.0,8.3,2.0,65,49,35,0.00,40.00,16,8,21,0.00